STARLINK-1800, 46700

Orbit data source: Space-Track

STARLINK-1800, 46700 is a payload satellite owned by SpaceX/Seattle (US) in LEO that was launched on Sun, 18 Oct 2020 UTC via an FALCON 9 launch vehicle from the Air Force Eastern Test Range (AFETR). Payload-class satellites include a variety of spacecraft equipped with specific instruments for various scientific and technological missions. These include communications satellites like Starlink; space stations such as the ISS; scientific satellites like the Hubble; Earth observation satellites from companies like Planet Labs, Umbra, and HawkEye 360; GPS; miniature CubeSats for education and research; and military/defense satellites.

Loading next visibility...
Identifier
46700, 2020-073AG
Orbit
LEO
Country
Flag of USUS
Related business
Manufacturer
SpaceX/Seattle
Mission
Operational Commercial Communications
Bus & Motor
STARLINK, Unknown motor
Mass
260 kg wet, ~248 kg dry
Launch date (UTC)
2020-10-18 (5 years ago)
Launch vehicle
FALCON 9
Launch site
Air Force Eastern Test Range (AFETR)
Object type
Payload
Rocket body
Debris
Shape & HBR
Box + 1 Pan, 4.4 m
Radar Cross Section
13.562 m², Large (>1 m²)

Expand to show TLE details & history
Last TLE update: 10 hours ago

TLE from 10 hours ago
0 STARLINK-1800
1 46700U 20073AG  25258.50579536  .00003019  00000-0  22144-3 0  9990
2 46700  53.0548 323.0473 0000829 114.5769 245.5306 15.06407105270517
Epoch: 2025-09-15T12:08Z
TLE epoch observation values (Epoch: 2025-09-15T12:08:20.719Z)
Latitude
-0.00004°
Longitude
146.25146°
Altitude
548.307 km
Speed
7.589 km/s
True Right ascension
21h 32m 11s
True Declination
0° 00' 00"
Sunlit
Object was in full shadow at epoch
Visualization orbit readout
Latitude
Unknown
Longitude
Unknown
Altitude
Unknown
Speed
Unknown
Apparent Right ascension
Unknown
Apparent Declination
Unknown
Sunlit
N/A
Visualization observer readout
Local Sidereal Time
14:41:15
Azimuth
Unknown
Elevation
Unknown
Doppler factor
Unknown
Orbital elements
Apogee altitude
548.035 km
Perigee altitude
546.886 km
Semi-major axis
6,925.597 km
Eccentricity
0.00008
Inclination
53.0548°
RAAN
323.0473°
Arg. of periapsis
114.5769°
True anomaly
245.52195°
Mean anomaly
245.5306°
Eccentric anomaly
245.52628°
Mean motion
3.7658 °/min
Orbital period
95.6 mins
BSTAR
0.00022144
Loading maneuver chart data...
Computing Atmospheric mass density...
Loading historical data...
Loading historical data...
Loading historical data...
Loading historical data...
Loading historical data...
Loading historical data...
Loading historical data...

Documentation

Showing up to 5 results
|